owner,sensor,date,latitude,longitude,vertical_datum,mass_concentration_of_oxygen_in_sea_water,qcFlag 
NERRS,ioos:station:NOAA.NERRS:apaebwq:1,2017-11-01T00:45:00Z,29.7858,-84.8752,1.73,8.5,1111122 
NERRS,ioos:station:NOAA.NERRS:apaebwq:1,2017-11-01T01:45:00Z,29.7858,-84.8752,1.79,8.9,1111122 
NERRS,ioos:station:NOAA.NERRS:apaebwq:1,2017-11-01T02:45:00Z,29.7858,-84.8752,1.91,8.9,1111122 
NERRS,ioos:station:NOAA.NERRS:apaebwq:1,2017-11-01T03:45:00Z,29.7858,-84.8752,2.04,8.8,1111122 
NERRS,ioos:station:NOAA.NERRS:apaebwq:1,2017-11-01T04:45:00Z,29.7858,-84.8752,2.12,8.0,1111122 
NERRS,ioos:station:NOAA.NERRS:apaebwq:1,2017-11-01T05:45:00Z,29.7858,-84.8752,2.16,8.0,1111122 
NERRS,ioos:station:NOAA.NERRS:apaebwq:1,2017-11-01T06:45:00Z,29.7858,-84.8752,2.17,8.6,1111122 
NERRS,ioos:station:NOAA.NERRS:apaebwq:1,2017-11-01T07:45:00Z,29.7858,-84.8752,2.11,8.6,1111122 
NERRS,ioos:station:NOAA.NERRS:apaebwq:1,2017-11-01T08:45:00Z,29.7858,-84.8752,2.03,8.5,1111122 
NERRS,ioos:station:NOAA.NERRS:apaebwq:1,2017-11-01T09:45:00Z,29.7858,-84.8752,1.94,8.5,1111122 
NERRS,ioos:station:NOAA.NERRS:apaebwq:1,2017-11-01T10:45:00Z,29.7858,-84.8752,1.86,8.4,1111122 
NERRS,ioos:station:NOAA.NERRS:apaebwq:1,2017-11-01T11:45:00Z,29.7858,-84.8752,1.8,7.7,1111122 
NERRS,ioos:station:NOAA.NERRS:apaebwq:1,2017-11-01T12:45:00Z,29.7858,-84.8752,1.78,7.5,1111122 
NERRS,ioos:station:NOAA.NERRS:apaebwq:1,2017-11-01T13:45:00Z,29.7858,-84.8752,1.83,8.4,1111122 
NERRS,ioos:station:NOAA.NERRS:apaebwq:1,2017-11-01T14:45:00Z,29.7858,-84.8752,1.98,8.5,1111122 
NERRS,ioos:station:NOAA.NERRS:apaebwq:1,2017-11-01T15:45:00Z,29.7858,-84.8752,2.13,8.7,1111122 
NERRS,ioos:station:NOAA.NERRS:apaebwq:1,2017-11-01T16:45:00Z,29.7858,-84.8752,2.23,8.8,1111122 
NERRS,ioos:station:NOAA.NERRS:apaebwq:1,2017-11-01T17:45:00Z,29.7858,-84.8752,2.28,8.0,1111122 
NERRS,ioos:station:NOAA.NERRS:apaebwq:1,2017-11-01T18:45:00Z,29.7858,-84.8752,2.29,8.5,1111122 
NERRS,ioos:station:NOAA.NERRS:apaebwq:1,2017-11-01T19:45:00Z,29.7858,-84.8752,2.24,9.3,1111122 
NERRS,ioos:station:NOAA.NERRS:apaebwq:1,2017-11-01T20:45:00Z,29.7858,-84.8752,2.17,9.1,1111122 
NERRS,ioos:station:NOAA.NERRS:apaebwq:1,2017-11-01T21:45:00Z,29.7858,-84.8752,2.09,9.0,1111122 
NERRS,ioos:station:NOAA.NERRS:apaebwq:1,2017-11-01T22:45:00Z,29.7858,-84.8752,2.0,9.4,1111122 
NERRS,ioos:station:NOAA.NERRS:apaebwq:1,2017-11-01T23:45:00Z,29.7858,-84.8752,1.93,8.7,1111122 
NERRS,ioos:station:NOAA.NERRS:apaebwq:1,2017-11-02T00:45:00Z,29.7858,-84.8752,1.89,8.3,1111122 
NERRS,ioos:station:NOAA.NERRS:apaebwq:1,2017-11-02T01:45:00Z,29.7858,-84.8752,1.91,8.5,1111122 
NERRS,ioos:station:NOAA.NERRS:apaebwq:1,2017-11-02T02:45:00Z,29.7858,-84.8752,2.01,8.9,1111122 
NERRS,ioos:station:NOAA.NERRS:apaebwq:1,2017-11-02T03:45:00Z,29.7858,-84.8752,2.16,9.3,1111122 
NERRS,ioos:station:NOAA.NERRS:apaebwq:1,2017-11-02T04:45:00Z,29.7858,-84.8752,2.28,9.2,1111122 
NERRS,ioos:station:NOAA.NERRS:apaebwq:1,2017-11-02T05:45:00Z,29.7858,-84.8752,2.34,9.1,1111122 
NERRS,ioos:station:NOAA.NERRS:apaebwq:1,2017-11-02T06:45:00Z,29.7858,-84.8752,2.35,8.3,1111122 
NERRS,ioos:station:NOAA.NERRS:apaebwq:1,2017-11-02T07:45:00Z,29.7858,-84.8752,2.31,8.6,1111122 
NERRS,ioos:station:NOAA.NERRS:apaebwq:1,2017-11-02T08:45:00Z,29.7858,-84.8752,2.21,8.8,1111122 
NERRS,ioos:station:NOAA.NERRS:apaebwq:1,2017-11-02T09:45:00Z,29.7858,-84.8752,2.11,8.8,1111122 
NERRS,ioos:station:NOAA.NERRS:apaebwq:1,2017-11-02T10:45:00Z,29.7858,-84.8752,2.0,8.7,1111122 
NERRS,ioos:station:NOAA.NERRS:apaebwq:1,2017-11-02T11:45:00Z,29.7858,-84.8752,1.91,8.6,1111122 
NERRS,ioos:station:NOAA.NERRS:apaebwq:1,2017-11-02T12:45:00Z,29.7858,-84.8752,1.85,8.1,1111122 
NERRS,ioos:station:NOAA.NERRS:apaebwq:1,2017-11-02T13:45:00Z,29.7858,-84.8752,1.83,7.8,1111122 
NERRS,ioos:station:NOAA.NERRS:apaebwq:1,2017-11-02T14:45:00Z,29.7858,-84.8752,1.9,9.0,1111122 
NERRS,ioos:station:NOAA.NERRS:apaebwq:1,2017-11-02T15:45:00Z,29.7858,-84.8752,2.04,9.2,1111122 
NERRS,ioos:station:NOAA.NERRS:apaebwq:1,2017-11-02T16:45:00Z,29.7858,-84.8752,2.19,9.4,1111122 
NERRS,ioos:station:NOAA.NERRS:apaebwq:1,2017-11-02T17:45:00Z,29.7858,-84.8752,2.3,9.7,1111122 
NERRS,ioos:station:NOAA.NERRS:apaebwq:1,2017-11-02T18:45:00Z,29.7858,-84.8752,2.35,9.4,1111122 
NERRS,ioos:station:NOAA.NERRS:apaebwq:1,2017-11-02T19:45:00Z,29.7858,-84.8752,2.34,9.6,1111122 
NERRS,ioos:station:NOAA.NERRS:apaebwq:1,2017-11-02T20:45:00Z,29.7858,-84.8752,2.27,10.1,1111122 
NERRS,ioos:station:NOAA.NERRS:apaebwq:1,2017-11-02T21:45:00Z,29.7858,-84.8752,2.18,10.3,1111122 
NERRS,ioos:station:NOAA.NERRS:apaebwq:1,2017-11-02T22:45:00Z,29.7858,-84.8752,2.08,10.3,1111122 
NERRS,ioos:station:NOAA.NERRS:apaebwq:1,2017-11-02T23:45:00Z,29.7858,-84.8752,1.99,10.3,1111122 
NERRS,ioos:station:NOAA.NERRS:apaebwq:1,2017-11-03T00:45:00Z,29.7858,-84.8752,1.93,9.8,1111122 
NERRS,ioos:station:NOAA.NERRS:apaebwq:1,2017-11-03T01:45:00Z,29.7858,-84.8752,1.92,9.1,1111122 
NERRS,ioos:station:NOAA.NERRS:apaebwq:1,2017-11-03T02:45:00Z,29.7858,-84.8752,1.98,9.4,1111122 
NERRS,ioos:station:NOAA.NERRS:apaebwq:1,2017-11-03T03:45:00Z,29.7858,-84.8752,2.1,9.7,1111122 
NERRS,ioos:station:NOAA.NERRS:apaebwq:1,2017-11-03T04:45:00Z,29.7858,-84.8752,2.22,9.7,1111122 
NERRS,ioos:station:NOAA.NERRS:apaebwq:1,2017-11-03T05:45:00Z,29.7858,-84.8752,2.3,9.3,1111122 
NERRS,ioos:station:NOAA.NERRS:apaebwq:1,2017-11-03T06:45:00Z,29.7858,-84.8752,2.33,9.2,1111122 
NERRS,ioos:station:NOAA.NERRS:apaebwq:1,2017-11-03T07:45:00Z,29.7858,-84.8752,2.3,9.4,1111122 
NERRS,ioos:station:NOAA.NERRS:apaebwq:1,2017-11-03T08:45:00Z,29.7858,-84.8752,2.2,9.5,1111122 
NERRS,ioos:station:NOAA.NERRS:apaebwq:1,2017-11-03T09:45:00Z,29.7858,-84.8752,2.07,9.3,1111122 
NERRS,ioos:station:NOAA.NERRS:apaebwq:1,2017-11-03T10:45:00Z,29.7858,-84.8752,1.94,9.4,1111122 
NERRS,ioos:station:NOAA.NERRS:apaebwq:1,2017-11-03T11:45:00Z,29.7858,-84.8752,1.84,9.3,1111122 
NERRS,ioos:station:NOAA.NERRS:apaebwq:1,2017-11-03T12:45:00Z,29.7858,-84.8752,1.75,9.2,1111122 
NERRS,ioos:station:NOAA.NERRS:apaebwq:1,2017-11-03T13:45:00Z,29.7858,-84.8752,1.69,9.1,1111122 
NERRS,ioos:station:NOAA.NERRS:apaebwq:1,2017-11-03T14:45:00Z,29.7858,-84.8752,1.69,8.9,1111122 
NERRS,ioos:station:NOAA.NERRS:apaebwq:1,2017-11-03T15:45:00Z,29.7858,-84.8752,1.77,9.5,1111122 
NERRS,ioos:station:NOAA.NERRS:apaebwq:1,2017-11-03T16:45:00Z,29.7858,-84.8752,1.93,9.7,1111122 
NERRS,ioos:station:NOAA.NERRS:apaebwq:1,2017-11-03T17:45:00Z,29.7858,-84.8752,2.1,9.9,1111122 
NERRS,ioos:station:NOAA.NERRS:apaebwq:1,2017-11-03T18:45:00Z,29.7858,-84.8752,2.23,10.3,1111122 
NERRS,ioos:station:NOAA.NERRS:apaebwq:1,2017-11-03T19:45:00Z,29.7858,-84.8752,2.31,9.5,1111122 
NERRS,ioos:station:NOAA.NERRS:apaebwq:1,2017-11-03T20:45:00Z,29.7858,-84.8752,2.32,10.0,1111122 
NERRS,ioos:station:NOAA.NERRS:apaebwq:1,2017-11-03T21:45:00Z,29.7858,-84.8752,2.26,10.6,1111122 
NERRS,ioos:station:NOAA.NERRS:apaebwq:1,2017-11-03T22:45:00Z,29.7858,-84.8752,2.16,10.5,1111122 
NERRS,ioos:station:NOAA.NERRS:apaebwq:1,2017-11-03T23:45:00Z,29.7858,-84.8752,2.05,10.4,1111122 
NERRS,ioos:station:NOAA.NERRS:apaebwq:1,2017-11-04T01:45:00Z,29.7858,-84.8752,1.94,9.7,1111122 
NERRS,ioos:station:NOAA.NERRS:apaebwq:1,2017-11-04T02:45:00Z,29.7858,-84.8752,1.95,8.5,1111122 
NERRS,ioos:station:NOAA.NERRS:apaebwq:1,2017-11-04T03:45:00Z,29.7858,-84.8752,2.02,9.7,1111122 
NERRS,ioos:station:NOAA.NERRS:apaebwq:1,2017-11-04T04:45:00Z,29.7858,-84.8752,2.13,9.8,1111122 
NERRS,ioos:station:NOAA.NERRS:apaebwq:1,2017-11-04T05:45:00Z,29.7858,-84.8752,2.23,9.1,1111122 
NERRS,ioos:station:NOAA.NERRS:apaebwq:1,2017-11-04T06:45:00Z,29.7858,-84.8752,2.29,8.3,1111122 
NERRS,ioos:station:NOAA.NERRS:apaebwq:1,2017-11-04T07:45:00Z,29.7858,-84.8752,2.28,9.5,1111122 
NERRS,ioos:station:NOAA.NERRS:apaebwq:1,2017-11-04T08:45:00Z,29.7858,-84.8752,2.19,9.5,1111122 
NERRS,ioos:station:NOAA.NERRS:apaebwq:1,2017-11-04T09:45:00Z,29.7858,-84.8752,2.07,9.5,1111122 
NERRS,ioos:station:NOAA.NERRS:apaebwq:1,2017-11-04T10:45:00Z,29.7858,-84.8752,1.95,9.1,1111122 
NERRS,ioos:station:NOAA.NERRS:apaebwq:1,2017-11-04T11:45:00Z,29.7858,-84.8752,1.83,9.1,1111122 
NERRS,ioos:station:NOAA.NERRS:apaebwq:1,2017-11-04T12:45:00Z,29.7858,-84.8752,1.73,9.2,1111122 
NERRS,ioos:station:NOAA.NERRS:apaebwq:1,2017-11-04T13:45:00Z,29.7858,-84.8752,1.64,9.2,1111122 
NERRS,ioos:station:NOAA.NERRS:apaebwq:1,2017-11-04T14:45:00Z,29.7858,-84.8752,1.58,9.0,1111122 
NERRS,ioos:station:NOAA.NERRS:apaebwq:1,2017-11-04T15:45:00Z,29.7858,-84.8752,1.57,8.7,1111122 
NERRS,ioos:station:NOAA.NERRS:apaebwq:1,2017-11-04T16:45:00Z,29.7858,-84.8752,1.67,9.7,1111122 
NERRS,ioos:station:NOAA.NERRS:apaebwq:1,2017-11-04T17:45:00Z,29.7858,-84.8752,1.83,10.0,1111122 
NERRS,ioos:station:NOAA.NERRS:apaebwq:1,2017-11-04T18:45:00Z,29.7858,-84.8752,2.01,10.2,1111122 
NERRS,ioos:station:NOAA.NERRS:apaebwq:1,2017-11-04T19:45:00Z,29.7858,-84.8752,2.16,10.6,1111122 
NERRS,ioos:station:NOAA.NERRS:apaebwq:1,2017-11-04T20:45:00Z,29.7858,-84.8752,2.25,10.0,1111122 
NERRS,ioos:station:NOAA.NERRS:apaebwq:1,2017-11-04T21:45:00Z,29.7858,-84.8752,2.27,9.5,1111122 
NERRS,ioos:station:NOAA.NERRS:apaebwq:1,2017-11-04T22:45:00Z,29.7858,-84.8752,2.24,10.2,1111122 
NERRS,ioos:station:NOAA.NERRS:apaebwq:1,2017-11-04T23:45:00Z,29.7858,-84.8752,2.17,10.2,1111122 
NERRS,ioos:station:NOAA.NERRS:apaebwq:1,2017-11-05T00:45:00Z,29.7858,-84.8752,2.07,10.1,1111122 
NERRS,ioos:station:NOAA.NERRS:apaebwq:1,2017-11-05T01:45:00Z,29.7858,-84.8752,2.0,9.7,1111122 
NERRS,ioos:station:NOAA.NERRS:apaebwq:1,2017-11-05T02:45:00Z,29.7858,-84.8752,1.99,9.5,1111122 
NERRS,ioos:station:NOAA.NERRS:apaebwq:1,2017-11-05T03:45:00Z,29.7858,-84.8752,2.03,7.9,1111122 
NERRS,ioos:station:NOAA.NERRS:apaebwq:1,2017-11-05T04:45:00Z,29.7858,-84.8752,2.11,9.8,1111122 
NERRS,ioos:station:NOAA.NERRS:apaebwq:1,2017-11-05T05:45:00Z,29.7858,-84.8752,2.21,9.4,1111122 
NERRS,ioos:station:NOAA.NERRS:apaebwq:1,2017-11-05T06:45:00Z,29.7858,-84.8752,2.31,9.3,1111122 
NERRS,ioos:station:NOAA.NERRS:apaebwq:1,2017-11-05T07:45:00Z,29.7858,-84.8752,2.35,9.1,1111122 
NERRS,ioos:station:NOAA.NERRS:apaebwq:1,2017-11-05T08:45:00Z,29.7858,-84.8752,2.32,9.1,1111122 
NERRS,ioos:station:NOAA.NERRS:apaebwq:1,2017-11-05T09:45:00Z,29.7858,-84.8752,2.21,9.2,1111122 
NERRS,ioos:station:NOAA.NERRS:apaebwq:1,2017-11-05T10:45:00Z,29.7858,-84.8752,2.07,9.3,1111122 
NERRS,ioos:station:NOAA.NERRS:apaebwq:1,2017-11-05T11:45:00Z,29.7858,-84.8752,1.94,9.1,1111122 
NERRS,ioos:station:NOAA.NERRS:apaebwq:1,2017-11-05T12:45:00Z,29.7858,-84.8752,1.83,9.1,1111122 
NERRS,ioos:station:NOAA.NERRS:apaebwq:1,2017-11-05T13:45:00Z,29.7858,-84.8752,1.73,9.3,1111122 
NERRS,ioos:station:NOAA.NERRS:apaebwq:1,2017-11-05T14:45:00Z,29.7858,-84.8752,1.64,9.1,1111122 
NERRS,ioos:station:NOAA.NERRS:apaebwq:1,2017-11-05T15:45:00Z,29.7858,-84.8752,1.58,9.4,1111122 
NERRS,ioos:station:NOAA.NERRS:apaebwq:1,2017-11-05T16:45:00Z,29.7858,-84.8752,1.6,8.8,1111122 
NERRS,ioos:station:NOAA.NERRS:apaebwq:1,2017-11-05T17:45:00Z,29.7858,-84.8752,1.72,9.9,1111122 
NERRS,ioos:station:NOAA.NERRS:apaebwq:1,2017-11-05T18:45:00Z,29.7858,-84.8752,1.9,10.4,1111122 
NERRS,ioos:station:NOAA.NERRS:apaebwq:1,2017-11-05T19:45:00Z,29.7858,-84.8752,2.07,10.4,1111122 
NERRS,ioos:station:NOAA.NERRS:apaebwq:1,2017-11-05T20:45:00Z,29.7858,-84.8752,2.21,10.3,1111122 
NERRS,ioos:station:NOAA.NERRS:apaebwq:1,2017-11-05T21:45:00Z,29.7858,-84.8752,2.3,10.0,1111122 
NERRS,ioos:station:NOAA.NERRS:apaebwq:1,2017-11-05T22:45:00Z,29.7858,-84.8752,2.34,9.9,1111122 
NERRS,ioos:station:NOAA.NERRS:apaebwq:1,2017-11-05T23:45:00Z,29.7858,-84.8752,2.32,9.3,1111122 
NERRS,ioos:station:NOAA.NERRS:apaebwq:1,2017-11-06T00:45:00Z,29.7858,-84.8752,2.23,10.3,1111122 
NERRS,ioos:station:NOAA.NERRS:apaebwq:1,2017-11-06T01:45:00Z,29.7858,-84.8752,2.14,10.1,1111122 
NERRS,ioos:station:NOAA.NERRS:apaebwq:1,2017-11-06T02:45:00Z,29.7858,-84.8752,2.09,9.6,1111122 
NERRS,ioos:station:NOAA.NERRS:apaebwq:1,2017-11-06T03:45:00Z,29.7858,-84.8752,2.11,9.0,1111122 
NERRS,ioos:station:NOAA.NERRS:apaebwq:1,2017-11-06T04:45:00Z,29.7858,-84.8752,2.15,9.1,1111122 
NERRS,ioos:station:NOAA.NERRS:apaebwq:1,2017-11-06T05:45:00Z,29.7858,-84.8752,2.23,9.7,1111122 
NERRS,ioos:station:NOAA.NERRS:apaebwq:1,2017-11-06T06:45:00Z,29.7858,-84.8752,2.31,9.5,1111122 
NERRS,ioos:station:NOAA.NERRS:apaebwq:1,2017-11-06T07:45:00Z,29.7858,-84.8752,2.38,9.1,1111122 
NERRS,ioos:station:NOAA.NERRS:apaebwq:1,2017-11-06T08:45:00Z,29.7858,-84.8752,2.4,9.0,1111122 
NERRS,ioos:station:NOAA.NERRS:apaebwq:1,2017-11-06T09:45:00Z,29.7858,-84.8752,2.34,9.3,1111122 
NERRS,ioos:station:NOAA.NERRS:apaebwq:1,2017-11-06T10:45:00Z,29.7858,-84.8752,2.21,9.0,1111122 
NERRS,ioos:station:NOAA.NERRS:apaebwq:1,2017-11-06T11:45:00Z,29.7858,-84.8752,2.08,9.1,1111122 
NERRS,ioos:station:NOAA.NERRS:apaebwq:1,2017-11-06T12:45:00Z,29.7858,-84.8752,1.94,9.1,1111122 
NERRS,ioos:station:NOAA.NERRS:apaebwq:1,2017-11-06T13:45:00Z,29.7858,-84.8752,1.82,9.2,1111122 
NERRS,ioos:station:NOAA.NERRS:apaebwq:1,2017-11-06T14:45:00Z,29.7858,-84.8752,1.72,9.2,1111122 
NERRS,ioos:station:NOAA.NERRS:apaebwq:1,2017-11-06T15:45:00Z,29.7858,-84.8752,1.63,9.3,1111122 
NERRS,ioos:station:NOAA.NERRS:apaebwq:1,2017-11-06T16:45:00Z,29.7858,-84.8752,1.57,9.3,1111122 
NERRS,ioos:station:NOAA.NERRS:apaebwq:1,2017-11-06T17:45:00Z,29.7858,-84.8752,1.57,9.0,1111122 
NERRS,ioos:station:NOAA.NERRS:apaebwq:1,2017-11-06T18:45:00Z,29.7858,-84.8752,1.69,9.9,1111122 
NERRS,ioos:station:NOAA.NERRS:apaebwq:1,2017-11-06T19:45:00Z,29.7858,-84.8752,1.87,10.0,1111122 
NERRS,ioos:station:NOAA.NERRS:apaebwq:1,2017-11-06T20:45:00Z,29.7858,-84.8752,2.05,10.1,1111122 
NERRS,ioos:station:NOAA.NERRS:apaebwq:1,2017-11-06T21:45:00Z,29.7858,-84.8752,2.19,10.1,1111122 
NERRS,ioos:station:NOAA.NERRS:apaebwq:1,2017-11-06T22:45:00Z,29.7858,-84.8752,2.28,10.0,1111122 
NERRS,ioos:station:NOAA.NERRS:apaebwq:1,2017-11-06T23:45:00Z,29.7858,-84.8752,2.31,8.7,1111122 
NERRS,ioos:station:NOAA.NERRS:apaebwq:1,2017-11-07T00:45:00Z,29.7858,-84.8752,2.27,9.2,1111122 
NERRS,ioos:station:NOAA.NERRS:apaebwq:1,2017-11-07T01:45:00Z,29.7858,-84.8752,2.19,9.3,1111122 
NERRS,ioos:station:NOAA.NERRS:apaebwq:1,2017-11-07T02:45:00Z,29.7858,-84.8752,2.1,9.4,1111122 
NERRS,ioos:station:NOAA.NERRS:apaebwq:1,2017-11-07T03:45:00Z,29.7858,-84.8752,2.08,9.1,1111122 
NERRS,ioos:station:NOAA.NERRS:apaebwq:1,2017-11-07T04:45:00Z,29.7858,-84.8752,2.09,8.6,1111122 
NERRS,ioos:station:NOAA.NERRS:apaebwq:1,2017-11-07T05:45:00Z,29.7858,-84.8752,2.13,8.4,1111122 
NERRS,ioos:station:NOAA.NERRS:apaebwq:1,2017-11-07T06:45:00Z,29.7858,-84.8752,2.21,9.1,1111122 
NERRS,ioos:station:NOAA.NERRS:apaebwq:1,2017-11-07T07:45:00Z,29.7858,-84.8752,2.31,9.0,1111122 
NERRS,ioos:station:NOAA.NERRS:apaebwq:1,2017-11-07T08:45:00Z,29.7858,-84.8752,2.36,8.5,1111122 
NERRS,ioos:station:NOAA.NERRS:apaebwq:1,2017-11-07T09:45:00Z,29.7858,-84.8752,2.35,8.0,1111122 
NERRS,ioos:station:NOAA.NERRS:apaebwq:1,2017-11-07T10:45:00Z,29.7858,-84.8752,2.26,8.7,1111122 
NERRS,ioos:station:NOAA.NERRS:apaebwq:1,2017-11-07T11:45:00Z,29.7858,-84.8752,2.14,8.6,1111122 
NERRS,ioos:station:NOAA.NERRS:apaebwq:1,2017-11-07T12:45:00Z,29.7858,-84.8752,2.0,8.6,1111122 
NERRS,ioos:station:NOAA.NERRS:apaebwq:1,2017-11-07T13:45:00Z,29.7858,-84.8752,1.89,8.6,1111122 
NERRS,ioos:station:NOAA.NERRS:apaebwq:1,2017-11-07T16:45:00Z,29.7858,-84.8752,1.61,8.9,1111122 
NERRS,ioos:station:NOAA.NERRS:apaebwq:1,2017-11-07T18:45:00Z,29.7858,-84.8752,1.61,8.8,1111122 
NERRS,ioos:station:NOAA.NERRS:apaebwq:1,2017-11-07T19:45:00Z,29.7858,-84.8752,1.77,9.2,1111122 
NERRS,ioos:station:NOAA.NERRS:apaebwq:1,2017-11-07T20:45:00Z,29.7858,-84.8752,1.96,9.4,1111122 
NERRS,ioos:station:NOAA.NERRS:apaebwq:1,2017-11-07T22:45:00Z,29.7858,-84.8752,2.23,9.3,1111122 
NERRS,ioos:station:NOAA.NERRS:apaebwq:1,2017-11-07T23:45:00Z,29.7858,-84.8752,2.28,9.2,1111122 
NERRS,ioos:station:NOAA.NERRS:apaebwq:1,2017-11-08T00:45:00Z,29.7858,-84.8752,2.31,9.1,1111122 
NERRS,ioos:station:NOAA.NERRS:apaebwq:1,2017-11-08T01:45:00Z,29.7858,-84.8752,2.28,8.7,1111122 
NERRS,ioos:station:NOAA.NERRS:apaebwq:1,2017-11-08T03:45:00Z,29.7858,-84.8752,2.15,8.3,1111122 
NERRS,ioos:station:NOAA.NERRS:apaebwq:1,2017-11-08T05:45:00Z,29.7858,-84.8752,2.14,7.7,1111122 
NERRS,ioos:station:NOAA.NERRS:apaebwq:1,2017-11-08T07:45:00Z,29.7858,-84.8752,2.26,7.9,1111122 
NERRS,ioos:station:NOAA.NERRS:apaebwq:1,2017-11-08T08:45:00Z,29.7858,-84.8752,2.34,8.4,1111122 
NERRS,ioos:station:NOAA.NERRS:apaebwq:1,2017-11-08T09:45:00Z,29.7858,-84.8752,2.39,8.0,1111122 
NERRS,ioos:station:NOAA.NERRS:apaebwq:1,2017-11-08T10:45:00Z,29.7858,-84.8752,2.35,7.7,1111122 
NERRS,ioos:station:NOAA.NERRS:apaebwq:1,2017-11-08T11:45:00Z,29.7858,-84.8752,2.25,7.5,1111122 
NERRS,ioos:station:NOAA.NERRS:apaebwq:1,2017-11-08T12:45:00Z,29.7858,-84.8752,2.13,7.6,1111122 
NERRS,ioos:station:NOAA.NERRS:apaebwq:1,2017-11-08T13:45:00Z,29.7858,-84.8752,2.01,7.8,1111122 
NERRS,ioos:station:NOAA.NERRS:apaebwq:1,2017-11-08T14:45:00Z,29.7858,-84.8752,1.89,8.0,1111122 
NERRS,ioos:station:NOAA.NERRS:apaebwq:1,2017-11-08T15:45:00Z,29.7858,-84.8752,1.78,8.0,1111122 
NERRS,ioos:station:NOAA.NERRS:apaebwq:1,2017-11-08T16:45:00Z,29.7858,-84.8752,1.68,8.1,1111122 
NERRS,ioos:station:NOAA.NERRS:apaebwq:1,2017-11-08T17:45:00Z,29.7858,-84.8752,1.6,7.9,1111122 
NERRS,ioos:station:NOAA.NERRS:apaebwq:1,2017-11-08T18:45:00Z,29.7858,-84.8752,1.57,8.0,1111122 
NERRS,ioos:station:NOAA.NERRS:apaebwq:1,2017-11-08T19:45:00Z,29.7858,-84.8752,1.65,8.4,1111122 
NERRS,ioos:station:NOAA.NERRS:apaebwq:1,2017-11-08T20:45:00Z,29.7858,-84.8752,1.81,8.5,1111122 
NERRS,ioos:station:NOAA.NERRS:apaebwq:1,2017-11-08T21:45:00Z,29.7858,-84.8752,1.97,8.4,1111122 
NERRS,ioos:station:NOAA.NERRS:apaebwq:1,2017-11-08T22:45:00Z,29.7858,-84.8752,2.1,8.4,1111122 
NERRS,ioos:station:NOAA.NERRS:apaebwq:1,2017-11-08T23:45:00Z,29.7858,-84.8752,2.2,8.5,1111122 
NERRS,ioos:station:NOAA.NERRS:apaebwq:1,2017-11-09T01:45:00Z,29.7858,-84.8752,2.28,7.9,1111122 
NERRS,ioos:station:NOAA.NERRS:apaebwq:1,2017-11-09T02:45:00Z,29.7858,-84.8752,2.26,7.6,1111122 
NERRS,ioos:station:NOAA.NERRS:apaebwq:1,2017-11-09T03:45:00Z,29.7858,-84.8752,2.22,7.3,1111122 
NERRS,ioos:station:NOAA.NERRS:apaebwq:1,2017-11-09T04:45:00Z,29.7858,-84.8752,2.17,7.7,1111122 
NERRS,ioos:station:NOAA.NERRS:apaebwq:1,2017-11-09T05:45:00Z,29.7858,-84.8752,2.14,7.4,1111122 
NERRS,ioos:station:NOAA.NERRS:apaebwq:1,2017-11-09T06:45:00Z,29.7858,-84.8752,2.14,6.5,1111122 
NERRS,ioos:station:NOAA.NERRS:apaebwq:1,2017-11-09T07:45:00Z,29.7858,-84.8752,2.18,7.5,1111122 
NERRS,ioos:station:NOAA.NERRS:apaebwq:1,2017-11-09T08:45:00Z,29.7858,-84.8752,2.26,7.7,1111122 
NERRS,ioos:station:NOAA.NERRS:apaebwq:1,2017-11-09T09:45:00Z,29.7858,-84.8752,2.32,6.8,1111122 
NERRS,ioos:station:NOAA.NERRS:apaebwq:1,2017-11-09T10:45:00Z,29.7858,-84.8752,2.33,6.7,1111122 
NERRS,ioos:station:NOAA.NERRS:apaebwq:1,2017-11-09T11:45:00Z,29.7858,-84.8752,2.27,7.0,1111122 
NERRS,ioos:station:NOAA.NERRS:apaebwq:1,2017-11-09T12:45:00Z,29.7858,-84.8752,2.21,6.9,1111122 
NERRS,ioos:station:NOAA.NERRS:apaebwq:1,2017-11-09T13:45:00Z,29.7858,-84.8752,2.11,6.8,1111122 
NERRS,ioos:station:NOAA.NERRS:apaebwq:1,2017-11-09T14:45:00Z,29.7858,-84.8752,2.02,6.9,1111122 
NERRS,ioos:station:NOAA.NERRS:apaebwq:1,2017-11-09T15:45:00Z,29.7858,-84.8752,1.9,7.5,1111122 
NERRS,ioos:station:NOAA.NERRS:apaebwq:1,2017-11-09T16:45:00Z,29.7858,-84.8752,1.8,7.4,1111122 
NERRS,ioos:station:NOAA.NERRS:apaebwq:1,2017-11-09T17:45:00Z,29.7858,-84.8752,1.71,7.3,1111122 
NERRS,ioos:station:NOAA.NERRS:apaebwq:1,2017-11-09T18:45:00Z,29.7858,-84.8752,1.6,7.5,1111122 
NERRS,ioos:station:NOAA.NERRS:apaebwq:1,2017-11-09T19:45:00Z,29.7858,-84.8752,1.55,7.3,1111122 
NERRS,ioos:station:NOAA.NERRS:apaebwq:1,2017-11-09T20:45:00Z,29.7858,-84.8752,1.56,7.5,1111122 
NERRS,ioos:station:NOAA.NERRS:apaebwq:1,2017-11-09T21:45:00Z,29.7858,-84.8752,1.69,7.5,1111122 
NERRS,ioos:station:NOAA.NERRS:apaebwq:1,2017-11-09T22:45:00Z,29.7858,-84.8752,1.87,7.6,1111122 
NERRS,ioos:station:NOAA.NERRS:apaebwq:1,2017-11-09T23:45:00Z,29.7858,-84.8752,2.03,7.6,1111122 
NERRS,ioos:station:NOAA.NERRS:apaebwq:1,2017-11-10T00:45:00Z,29.7858,-84.8752,2.1,7.5,1111122 
NERRS,ioos:station:NOAA.NERRS:apaebwq:1,2017-11-10T01:45:00Z,29.7858,-84.8752,2.15,7.2,1111122 
NERRS,ioos:station:NOAA.NERRS:apaebwq:1,2017-11-10T02:45:00Z,29.7858,-84.8752,2.15,6.9,1111122 
NERRS,ioos:station:NOAA.NERRS:apaebwq:1,2017-11-10T03:45:00Z,29.7858,-84.8752,2.13,6.7,1111122 
NERRS,ioos:station:NOAA.NERRS:apaebwq:1,2017-11-10T04:45:00Z,29.7858,-84.8752,2.09,6.5,1111122 
NERRS,ioos:station:NOAA.NERRS:apaebwq:1,2017-11-10T05:45:00Z,29.7858,-84.8752,2.06,6.6,1111122 
NERRS,ioos:station:NOAA.NERRS:apaebwq:1,2017-11-10T06:45:00Z,29.7858,-84.8752,2.0,6.9,1111122 
NERRS,ioos:station:NOAA.NERRS:apaebwq:1,2017-11-10T07:45:00Z,29.7858,-84.8752,2.02,6.8,1111122 
NERRS,ioos:station:NOAA.NERRS:apaebwq:1,2017-11-10T08:45:00Z,29.7858,-84.8752,2.1,7.2,1111122 
NERRS,ioos:station:NOAA.NERRS:apaebwq:1,2017-11-10T09:45:00Z,29.7858,-84.8752,2.16,7.1,1111122 
NERRS,ioos:station:NOAA.NERRS:apaebwq:1,2017-11-10T10:45:00Z,29.7858,-84.8752,2.22,6.8,1111122 
NERRS,ioos:station:NOAA.NERRS:apaebwq:1,2017-11-10T11:45:00Z,29.7858,-84.8752,2.22,6.0,1111122 
NERRS,ioos:station:NOAA.NERRS:apaebwq:1,2017-11-10T12:45:00Z,29.7858,-84.8752,2.2,5.8,1111122 
NERRS,ioos:station:NOAA.NERRS:apaebwq:1,2017-11-10T13:45:00Z,29.7858,-84.8752,2.13,6.7,1111122 
NERRS,ioos:station:NOAA.NERRS:apaebwq:1,2017-11-10T14:45:00Z,29.7858,-84.8752,2.04,7.1,1111122 
NERRS,ioos:station:NOAA.NERRS:apaebwq:1,2017-11-10T15:45:00Z,29.7858,-84.8752,1.94,7.3,1111122 
NERRS,ioos:station:NOAA.NERRS:apaebwq:1,2017-11-10T16:45:00Z,29.7858,-84.8752,1.86,7.5,1111122 
NERRS,ioos:station:NOAA.NERRS:apaebwq:1,2017-11-10T17:45:00Z,29.7858,-84.8752,1.78,7.4,1111122 
NERRS,ioos:station:NOAA.NERRS:apaebwq:1,2017-11-10T18:45:00Z,29.7858,-84.8752,1.7,8.1,1111122 
NERRS,ioos:station:NOAA.NERRS:apaebwq:1,2017-11-10T19:45:00Z,29.7858,-84.8752,1.67,7.6,1111122 
NERRS,ioos:station:NOAA.NERRS:apaebwq:1,2017-11-10T20:45:00Z,29.7858,-84.8752,1.68,7.3,1111122 
NERRS,ioos:station:NOAA.NERRS:apaebwq:1,2017-11-10T21:45:00Z,29.7858,-84.8752,1.73,8.4,1111122 
NERRS,ioos:station:NOAA.NERRS:apaebwq:1,2017-11-10T22:45:00Z,29.7858,-84.8752,1.82,8.4,1111122 
NERRS,ioos:station:NOAA.NERRS:apaebwq:1,2017-11-10T23:45:00Z,29.7858,-84.8752,1.95,8.3,1111122 
NERRS,ioos:station:NOAA.NERRS:apaebwq:1,2017-11-11T00:45:00Z,29.7858,-84.8752,2.04,8.3,1111122 
NERRS,ioos:station:NOAA.NERRS:apaebwq:1,2017-11-11T01:45:00Z,29.7858,-84.8752,2.09,8.2,1111122 
NERRS,ioos:station:NOAA.NERRS:apaebwq:1,2017-11-11T02:45:00Z,29.7858,-84.8752,2.1,8.0,1111122 
NERRS,ioos:station:NOAA.NERRS:apaebwq:1,2017-11-11T03:45:00Z,29.7858,-84.8752,2.09,8.0,1111122 
NERRS,ioos:station:NOAA.NERRS:apaebwq:1,2017-11-11T04:45:00Z,29.7858,-84.8752,2.08,7.5,1111122 
NERRS,ioos:station:NOAA.NERRS:apaebwq:1,2017-11-11T05:45:00Z,29.7858,-84.8752,2.08,6.8,1111122 
NERRS,ioos:station:NOAA.NERRS:apaebwq:1,2017-11-11T06:45:00Z,29.7858,-84.8752,2.06,6.6,1111122 
NERRS,ioos:station:NOAA.NERRS:apaebwq:1,2017-11-11T07:45:00Z,29.7858,-84.8752,2.04,6.1,1111122 
NERRS,ioos:station:NOAA.NERRS:apaebwq:1,2017-11-11T08:45:00Z,29.7858,-84.8752,2.03,5.9,1111122 
NERRS,ioos:station:NOAA.NERRS:apaebwq:1,2017-11-11T09:45:00Z,29.7858,-84.8752,2.06,5.7,1111122 
NERRS,ioos:station:NOAA.NERRS:apaebwq:1,2017-11-11T10:45:00Z,29.7858,-84.8752,2.06,5.4,1111122 
NERRS,ioos:station:NOAA.NERRS:apaebwq:1,2017-11-11T11:45:00Z,29.7858,-84.8752,2.08,5.3,1111122 
NERRS,ioos:station:NOAA.NERRS:apaebwq:1,2017-11-11T12:45:00Z,29.7858,-84.8752,2.08,5.2,1111122 
NERRS,ioos:station:NOAA.NERRS:apaebwq:1,2017-11-11T13:45:00Z,29.7858,-84.8752,2.1,5.0,1111122 
NERRS,ioos:station:NOAA.NERRS:apaebwq:1,2017-11-11T14:45:00Z,29.7858,-84.8752,2.13,5.8,1111122 
NERRS,ioos:station:NOAA.NERRS:apaebwq:1,2017-11-11T15:45:00Z,29.7858,-84.8752,2.13,5.1,1111122 
NERRS,ioos:station:NOAA.NERRS:apaebwq:1,2017-11-11T16:45:00Z,29.7858,-84.8752,2.05,5.1,1111122 